When you browse on this site, cookies collect data to enhance your experience and personalize the content and advertising you see.
Visit our Privacy Policy to learn more. By continuing to use the site, you agree to this use of cookies and data.
  • In United Kingdom
  • List of Countries
  • For 7 days
  • Water Temperature
  • Weather Map
  • Weather Widgets
  • user-avatar
    Login

    Hourly Weather Kidira

    Today, 23 October, Wednesday

    Time Temperature Precipitation Wind Pressure Humidity
    00:00 +32°C° 0.3 mm 2 mps 751 mmHg 48%
    01:00 +31°C° 0.3 mm 2 mps 750 mmHg 51%
    02:00 +31°C° 0.3 mm 2 mps 750 mmHg 53%
    03:00 +30°C° 0.4 mm 2 mps 750 mmHg 54%
    04:00 +30°C° 0.4 mm 2 mps 750 mmHg 55%
    05:00 +29°C° 0.4 mm 2 mps 750 mmHg 56%
    06:00 +30°C° 0 mm 2 mps 751 mmHg 53%
    07:00 +32°C° 0 mm 2 mps 751 mmHg 50%
    08:00 +34°C° 0 mm 2 mps 752 mmHg 46%
    09:00 +36°C° 0 mm 2 mps 752 mmHg 42%
    10:00 +37°C° 0 mm 2 mps 751 mmHg 38%
    11:00 +39°C° 0 mm 3 mps 751 mmHg 34%
    12:00 +39°C° 0 mm 3 mps 750 mmHg 34%
    13:00 +41°C° 0 mm 4 mps 749 mmHg 33%
    14:00 +41°C° 0 mm 4 mps 749 mmHg 33%
    15:00 +40°C° 0 mm 3 mps 749 mmHg 33%
    16:00 +39°C° 0 mm 3 mps 749 mmHg 33%
    17:00 +39°C° 0 mm 2 mps 749 mmHg 34%
    18:00 +38°C° 0.1 mm 2 mps 750 mmHg 37%
    19:00 +37°C° 0.1 mm 2 mps 750 mmHg 41%
    20:00 +35°C° 0.1 mm 2 mps 751 mmHg 44%
    21:00 +35°C° 0.1 mm 2 mps 751 mmHg 47%
    22:00 +33°C° 0.1 mm 1 mps 751 mmHg 50%
    23:00 +33°C° 0.1 mm 1 mps 751 mmHg 53%

    Tomorrow, 24 October, Thursday

    Time Temperature Precipitation Wind Pressure Humidity
    00:00 +32°C° 0 mm 1 mps 751 mmHg 55%
    01:00 +32°C° 0 mm 1 mps 751 mmHg 57%
    02:00 +31°C° 0 mm 2 mps 751 mmHg 59%
    03:00 +31°C° 0 mm 2 mps 751 mmHg 60%
    04:00 +31°C° 0 mm 2 mps 751 mmHg 62%
    05:00 +30°C° 0 mm 2 mps 751 mmHg 64%
    06:00 +31°C° 0 mm 2 mps 752 mmHg 60%
    07:00 +33°C° 0 mm 3 mps 752 mmHg 57%
    08:00 +34°C° 0 mm 3 mps 753 mmHg 53%
    09:00 +36°C° 0 mm 3 mps 753 mmHg 47%
    10:00 +37°C° 0 mm 3 mps 752 mmHg 42%
    11:00 +39°C° 0 mm 3 mps 752 mmHg 36%
    12:00 +40°C° 0 mm 3 mps 752 mmHg 33%
    13:00 +42°C° 0 mm 3 mps 751 mmHg 31%
    14:00 +42°C° 0 mm 3 mps 750 mmHg 28%
    15:00 +41°C° 0 mm 2 mps 750 mmHg 30%
    16:00 +40°C° 0 mm 2 mps 750 mmHg 32%
    17:00 +39°C° 0 mm 2 mps 750 mmHg 33%
    18:00 +38°C° 0.5 mm 2 mps 751 mmHg 38%
    19:00 +36°C° 0.5 mm 2 mps 752 mmHg 43%
    20:00 +35°C° 0.5 mm 2 mps 752 mmHg 49%
    21:00 +34°C° 0.6 mm 3 mps 753 mmHg 51%
    22:00 +33°C° 0.6 mm 3 mps 753 mmHg 54%
    23:00 +33°C° 0.6 mm 4 mps 753 mmHg 57%

    Day after tomorrow, 25 October, Friday

    Time Temperature Precipitation Wind Pressure Humidity
    00:00 +32°C° 0.1 mm 4 mps 753 mmHg 59%
    01:00 +32°C° 0.1 mm 4 mps 753 mmHg 62%
    02:00 +31°C° 0.1 mm 3 mps 753 mmHg 64%
    03:00 +30°C° 0.2 mm 3 mps 753 mmHg 67%
    04:00 +30°C° 0.2 mm 4 mps 753 mmHg 70%
    05:00 +29°C° 0.2 mm 4 mps 753 mmHg 73%
    06:00 +30°C° 0 mm 4 mps 754 mmHg 71%
    07:00 +30°C° 0 mm 4 mps 754 mmHg 69%
    08:00 +32°C° 0 mm 4 mps 755 mmHg 68%
    09:00 +33°C° 0 mm 3 mps 754 mmHg 60%
    10:00 +35°C° 0 mm 3 mps 754 mmHg 53%
    11:00 +37°C° 0 mm 3 mps 754 mmHg 46%
    12:00 +38°C° 0 mm 3 mps 753 mmHg 41%
    13:00 +39°C° 0 mm 3 mps 752 mmHg 37%
    14:00 +40°C° 0 mm 3 mps 752 mmHg 32%
    15:00 +40°C° 0 mm 2 mps 752 mmHg 32%
    16:00 +40°C° 0 mm 2 mps 751 mmHg 32%
    17:00 +39°C° 0 mm 2 mps 751 mmHg 32%
    18:00 +38°C° 0 mm 2 mps 752 mmHg 35%
    19:00 +37°C° 0 mm 3 mps 752 mmHg 38%
    20:00 +36°C° 0 mm 3 mps 753 mmHg 41%
    21:00 +35°C° 0 mm 4 mps 753 mmHg 45%
    22:00 +34°C° 0 mm 5 mps 753 mmHg 49%
    23:00 +33°C° 0 mm 6 mps 753 mmHg 54%

    26 October, Saturday

    Time Temperature Precipitation Wind Pressure Humidity
    00:00 +33°C° 0 mm 5 mps 753 mmHg 57%
    01:00 +32°C° 0 mm 5 mps 753 mmHg 60%
    02:00 +32°C° 0 mm 4 mps 753 mmHg 63%
    03:00 +30°C° 0 mm 4 mps 753 mmHg 64%
    04:00 +30°C° 0 mm 4 mps 753 mmHg 66%
    05:00 +30°C° 0 mm 4 mps 753 mmHg 67%
    06:00 +32°C° 0 mm 4 mps 753 mmHg 63%
    07:00 +33°C° 0 mm 4 mps 753 mmHg 59%
    08:00 +34°C° 0 mm 4 mps 754 mmHg 55%
    09:00 +36°C° 0 mm 4 mps 753 mmHg 48%
    10:00 +38°C° 0 mm 3 mps 753 mmHg 41%
    11:00 +39°C° 0 mm 3 mps 753 mmHg 34%
    12:00 +40°C° 0 mm 2 mps 752 mmHg 30%
    13:00 +41°C° 0 mm 2 mps 751 mmHg 27%
    14:00 +42°C° 0 mm 1 mps 750 mmHg 23%
    15:00 +42°C° 0 mm 1 mps 750 mmHg 23%
    16:00 +41°C° 0 mm 1 mps 750 mmHg 24%
    17:00 +41°C° 0 mm 2 mps 750 mmHg 24%
    18:00 +40°C° 0 mm 2 mps 751 mmHg 25%
    19:00 +39°C° 0 mm 2 mps 751 mmHg 26%
    20:00 +37°C° 0 mm 2 mps 752 mmHg 28%
    21:00 +36°C° 0 mm 1 mps 752 mmHg 30%
    22:00 +35°C° 0 mm 1 mps 752 mmHg 32%
    23:00 +34°C° 0 mm 1 mps 752 mmHg 35%

    27 October, Sunday

    Time Temperature Precipitation Wind Pressure Humidity
    00:00 +33°C° 0 mm 1 mps 752 mmHg 38%
    01:00 +33°C° 0 mm 1 mps 751 mmHg 42%
    02:00 +32°C° 0 mm 2 mps 751 mmHg 45%
    03:00 +31°C° 0 mm 1 mps 751 mmHg 47%
    04:00 +30°C° 0 mm 1 mps 752 mmHg 49%
    05:00 +30°C° 0 mm 1 mps 752 mmHg 50%
    06:00 +32°C° 0 mm 2 mps 752 mmHg 43%
    07:00 +34°C° 0 mm 2 mps 753 mmHg 36%
    08:00 +36°C° 0 mm 3 mps 753 mmHg 29%
    09:00 +38°C° 0 mm 4 mps 753 mmHg 24%
    10:00 +41°C° 0 mm 4 mps 753 mmHg 18%
    11:00 +42°C° 0 mm 5 mps 752 mmHg 12%
    12:00 +43°C° 0 mm 5 mps 752 mmHg 12%
    13:00 +43°C° 0 mm 4 mps 751 mmHg 12%
    14:00 +44°C° 0 mm 3 mps 750 mmHg 11%
    15:00 +43°C° 0 mm 3 mps 750 mmHg 12%
    16:00 +42°C° 0 mm 3 mps 750 mmHg 13%
    17:00 +40°C° 0 mm 2 mps 750 mmHg 14%
    18:00 +38°C° 0 mm 3 mps 750 mmHg 14%
    19:00 +37°C° 0 mm 3 mps 751 mmHg 14%
    20:00 +36°C° 0 mm 3 mps 751 mmHg 14%
    21:00 +35°C° 0 mm 3 mps 751 mmHg 14%
    22:00 +34°C° 0 mm 3 mps 752 mmHg 15%
    23:00 +32°C° 0 mm 2 mps 752 mmHg 15%

    28 October, Monday

    Time Temperature Precipitation Wind Pressure Humidity
    00:00 +31°C° 0 mm 2 mps 752 mmHg 15%
    01:00 +30°C° 0 mm 1 mps 751 mmHg 16%
    02:00 +29°C° 0 mm 1 mps 751 mmHg 17%
    03:00 +28°C° 0 mm 1 mps 752 mmHg 16%
    04:00 +28°C° 0 mm 2 mps 752 mmHg 16%
    05:00 +28°C° 0 mm 2 mps 752 mmHg 15%
    06:00 +29°C° 0 mm 2 mps 752 mmHg 15%
    07:00 +31°C° 0 mm 3 mps 753 mmHg 14%
    08:00 +33°C° 0 mm 3 mps 753 mmHg 14%
    09:00 +35°C° 0 mm 3 mps 753 mmHg 13%
    10:00 +36°C° 0 mm 3 mps 753 mmHg 11%
    11:00 +38°C° 0 mm 3 mps 753 mmHg 10%
    12:00 +39°C° 0 mm 2 mps 752 mmHg 9%
    13:00 +39°C° 0 mm 2 mps 751 mmHg 9%
    14:00 +40°C° 0 mm 2 mps 750 mmHg 8%
    15:00 +39°C° 0 mm 2 mps 750 mmHg 9%
    16:00 +38°C° 0 mm 2 mps 750 mmHg 10%
    17:00 +37°C° 0 mm 2 mps 750 mmHg 11%
    18:00 +36°C° 0 mm 2 mps 751 mmHg 11%
    19:00 +35°C° 0 mm 2 mps 751 mmHg 12%
    20:00 +34°C° 0 mm 2 mps 752 mmHg 12%
    21:00 +31°C° 0 mm 2 mps 752 mmHg 24%
    22:00 +30°C° 0 mm 2 mps 752 mmHg 36%
    23:00 +29°C° 0 mm 2 mps 752 mmHg 49%

    29 October, Tuesday

    Time Temperature Precipitation Wind Pressure Humidity
    00:00 +29°C° 0 mm 2 mps 751 mmHg 55%
    01:00 +28°C° 0 mm 2 mps 751 mmHg 62%
    02:00 +28°C° 0 mm 1 mps 751 mmHg 69%
    03:00 +28°C° 0 mm 1 mps 751 mmHg 68%
    04:00 +27°C° 0 mm 1 mps 751 mmHg 66%
    05:00 +25°C° 0 mm 0 mps 751 mmHg 65%
    06:00 +28°C° 0 mm 1 mps 752 mmHg 59%
    07:00 +30°C° 0 mm 1 mps 752 mmHg 54%
    08:00 +31°C° 0 mm 1 mps 753 mmHg 48%
    09:00 +33°C° 0 mm 1 mps 753 mmHg 41%
    10:00 +34°C° 0 mm 1 mps 752 mmHg 35%
    11:00 +36°C° 0 mm 1 mps 752 mmHg 28%
    12:00 +37°C° 0 mm 1 mps 752 mmHg 26%
    13:00 +39°C° 0 mm 1 mps 751 mmHg 23%
    14:00 +40°C° 0 mm 1 mps 750 mmHg 21%
    15:00 +39°C° 0 mm 1 mps 750 mmHg 21%
    16:00 +39°C° 0 mm 1 mps 750 mmHg 21%
    17:00 +37°C° 0 mm 1 mps 750 mmHg 21%
    18:00 +36°C° 0 mm 1 mps 751 mmHg 20%
    19:00 +34°C° 0 mm 1 mps 751 mmHg 18%
    20:00 +33°C° 0 mm 1 mps 752 mmHg 17%
    21:00 +32°C° 0 mm 1 mps 752 mmHg 23%
    22:00 +31°C° 0 mm 2 mps 752 mmHg 30%
    23:00 +30°C° 0 mm 2 mps 752 mmHg 36%
    Show more